Weather in Newquay

United Kingdom     50°24′54″N   5°04′07″W
temp.,
°C
wind,
m/s
gust,
m/s
humid.,
%
clouds,
%
prec.,
mm/h
press.,
hPa
HPBL,
m
8 march, mon
mon800:00+2e238212 0.0 1027167
03:00+2e11750 0.0 102693
06:00+2e22750 0.0 1025108
09:00+4se11690 0.0 1025138
12:00+5nw21688 0.0 1026384
15:00+6nw446926 0.0 1024384
18:00+5nw227230 0.0 1024279
21:00+5w237135 0.0 1025405
9 march, tue
tue900:00+5wsw237252 0.0 1024413
03:00+5wsw357189 0.0 1023462
06:00+5ssw457759 0.0 1022366
09:00+6ssw577749 0.0 1021465
12:00+8ssw687459 0.0 1021698
15:00+9ssw71078100 0.0 1019910
18:00+7ssw81282100 0.0 1017746
21:00+7ssw91582100 0.0 1016811
10 march, wed
wed1000:00+8ssw111784100 0.0 1013860
03:00+9ssw121988100 0.6 1011769
06:00+9ssw121993100 2.5 1008688
09:00+10ssw111994100 1.5 1008547
12:00+11ssw101696100 3.1 1007462
15:00+11ssw111994100 0.2 1004531
18:00+11sw132294100 0.4 1001722
21:00+11sw162491100 0.2 999914
11 march, thu
thu1100:00+10wsw162479100 0.6 9991485
03:00+9wsw18267384 0.3 9981723
06:00+9w18257284 0.9 9991666
09:00+8w14197499 1.2 10011540
12:00+9w151971100 2.1 10041654
15:00+8w15206659 0.8 10051962
18:00+8w13176949 1.3 10071480
21:00+8w10147376 0.4 10091256
12 march, fri
fri1200:00+8wsw10147286 0.9 10101207
03:00+8wsw12177695 0.7 10081274
06:00+8wsw13187797 1.4 10061292
09:00+8w131778100 1.3 10061343
12:00+9w111569100 1.9 10071633
15:00+7w101380100 1.8 10041187
18:00+8w11146992 3.0 10041411
21:00+7w10137276 0.5 10051254